Погода в Новотроицком

Россия / Амурская область     50°29′51″N   127°33′22″E
темп.,
°C
ветер,
м/с
пор.,
м/с
влажн.,
%
обл.,
%
осадки,
мм/ч
давл.,
гПа
погр.,
м
15 мая, сб
сб1500:00+7сз2589100 0.0 1001132
03:00+6зсз22915 0.0 100020
06:00+6зсз310875 0.0 1000359
09:00+11зсз7106183 0.0 10001466
12:00+13зсз9125391 0.1 10001805
15:00+14зсз11144864 0.4 9992200
18:00+14сз8155491 0.2 10001941
21:00+11сз6136261 0.2 1002624
16 мая, вс
вс1600:00+10зсз511625 0.0 1003275
03:00+9зсз511600 0.0 1003274
06:00+8з410650 0.0 1004292
09:00+15зсз46400 0.0 1002975
12:00+20зюз26255 0.0 10002134
15:00+20в1425100 0.1 9972548
18:00+13зсз146692 1.1 999249
21:00+11юз226839 1.2 100113
17 мая, пн
пн1700:00+10зюз22732 0.0 100115
03:00+9зюз246912 0.0 100055
06:00+10юз3106399 0.0 1000252
09:00+18зсз583675 0.0 1000787
12:00+20сз6831100 0.0 10002188
15:00+22сз472529 0.0 10002857
18:00+21ссз242942 0.0 9991347
21:00+14вюв4104595 0.0 999164
18 мая, вт
вт1800:00+11вюв396015 0.0 997176
03:00+12сз21364100 0.0 996365
06:00+12зюз236850 0.0 995100
09:00+19зсз574826 0.0 994975
12:00+22зсз793580 0.0 9952343
15:00+20сз7824100 0.0 9962478
18:00+19сз582964 0.0 9982061
21:00+13с7133074 0.0 1002627
19 мая, ср
ср1900:00+8ссз34470 0.0 100558
03:00+6ссз22540 0.0 100717
06:00+7сз13565 0.0 1008107
09:00+12ююз223913 0.0 1008668
12:00+17ю57305 0.0 10061929
15:00+20ююв792556 0.0 10032312
18:00+19ююз3533100 0.0 1001110
21:00+15ююв41240100 0.0 1000243